Regional Weather Roundup
Issued by NWS Sioux Falls, SD

Home | Current Version | Previous Version | Text Only | Print | Product List | Glossary Off
Versions: 1 2 3 4 5 6 7 8 9 10 11 12 13 14 15 16 17 18 19 20 21 22 23 24 25 26 27 28 29 30 31 32 33 34 35 36 37 38 39 40 41 42 43 44 45 46 47 48 49 50

000
ASUS43 KFSD 191810
RWRFSD

WEATHER ROUNDUP FOR SE SOUTH DAKOTA/SW MINNESOTA/NW IOWA
NATIONAL WEATHER SERVICE SIOUX FALLS SD
100 PM CDT FRI SEP 19 2014

NOTE: "FAIR" INDICATES FEW OR NO CLOUDS BELOW 12,000 FEET WITH NO
SIGNIFICANT WEATHER AND OR OBSTRUCTIONS TO VISIBILITY.


SDZ038>040-050-052>070-191900-
SOUTHEAST SOUTH DAKOTA

CITY           SKY/WX    TMP DP  RH WIND       PRES   REMARKS
CHAMBERLAIN    MOSUNNY   81  65  58 NW12      29.71S
6HR MIN TEMP:  62; 6HR MAX TEMP:  81;

HURON          PTSUNNY   79  64  60 W8        29.67S
6HR MIN TEMP:  62; 6HR MAX TEMP:  79;

MADISON        MOCLDY    75  66  73 SW13G22   29.71F
MITCHELL       MOSUNNY   81  66  60 SW8       29.69S
6HR MIN TEMP:  64; 6HR MAX TEMP:  81;

SIOUX FALLS    MOSUNNY   81  64  56 SW15G23   29.71R
6HR MIN TEMP:  63; 6HR MAX TEMP:  81; 6HR PCP: TRACE;

WINNER         FAIR      86  56  35 NW13      29.74S
YANKTON        SUNNY     82  64  54 S15G24    29.71F
$$

MNZ071-072-080-081-089-090-097-098-191900-
SOUTHWEST MINNESOTA

CITY           SKY/WX    TMP DP  RH WIND       PRES   REMARKS
FAIRMONT       SUNNY     75  55  50 S22G31    29.76F
JACKSON        SUNNY     77  61  57 S21G29    29.75F
LUVERNE        SUNNY     79  63  57 S18G32    29.72S
MARSHALL       CLOUDY    72  63  73 SW8       29.68F
6HR MIN TEMP:  63; 6HR MAX TEMP:  72;

MONTEVIDEO     CLOUDY    68  63  83 SW6       29.71F
PIPESTONE      MOSUNNY   75  63  64 SW18G26   29.72R
REDWOOD FALLS  CLOUDY    73  63  70 SW15G21   29.71S
TRACY          MOSUNNY   74  64  69 SW16      29.72R
WINDOM         SUNNY     75  63  64 S24G33    29.70F
WORTHINGTON    SUNNY     75  63  64 S23G32    29.73F
$$

IAZ001>003-012>014-020>022-031-032-NEZ013-014-SDZ071-191900-
NORTHWEST IOWA

CITY           SKY/WX    TMP DP  RH WIND       PRES   REMARKS
CHEROKEE       SUNNY     78  67  67 S22       29.80F
DENISON        SUNNY     75  66  73 SW21G26   29.85F
ESTHERVILLE    SUNNY     77  63  61 S26G39    29.75F
LE MARS        SUNNY     79  66  65 S23G32    29.77F
ORANGE CITY    SUNNY     79  64  61 S23G31    29.76F
SHELDON        SUNNY     77  66  69 S23G32    29.74F
SIOUX CITY     SUNNY     81  67  62 S14G24    29.79F
6HR MIN TEMP:  63; 6HR MAX TEMP:  81;

SPENCER        SUNNY     80  64  58 S24G31    29.77F
6HR MIN TEMP:  60; 6HR MAX TEMP:  80;

STORM LAKE     SUNNY     77  68  73 S16G25    29.83F
$$

ABBREVIATIONS USED IN REMARKS
   TC - TEMPERATURE IN CELSIUS
  WCI - WIND CHILL INDEX
   HX - HEAT INDEX
  VSB - VISIBILITY



USA.gov is the U.S. government's official web portal to all federal, state and local government web resources and services.